Location: Unspecified
(0.0000°N, 0.0000°E)
Time: 14:31:02
(UTC+00:00)

Hubble Space Telescope - Pass Details

Date: 19 October 2017
Orbit: 537 x 541 km, 28.5° (Epoch: 17 December)

Event Time Altitude Azimuth Distance (km) Brightness Sun altitude
Exits shadow 04:34:13 35° 256° (WSW) 872 1.3 -17.4°
Maximum altitude 04:35:25 46° 210° (SSW) 723 1.2 -17.1°
Drops below altitude 10° 04:39:24 10° 136° (SE) 1,789 4.2 -16.1°
Sets 04:41:44 0° 130° (SE) 2,682 5.4 -15.6°
